AF5AA Weather Reports


time (UTC)temp
F
wind
direction
speed
knots
gust
knots
rain 1hr
in
rain 24hr
in
rain mn
in
humidity
%
barometer
mb
20260509200422 85 103 0.0 0.0 0.00 0.00 0.00 68 1008.6
20260509195919 85 123 0.9 0.9 0.00 0.00 0.00 70 1008.7
20260509195416 84 111 0.0 0.0 0.00 0.00 0.00 71 1008.9
20260509194914 84 58 0.0 0.9 0.00 0.00 0.00 71 1008.6
20260509194411 83 99 0.0 0.0 0.00 0.00 0.00 75 1008.8
20260509193908 82 103 0.0 0.0 0.00 0.00 0.00 78 1008.9
20260509193407 82 108 0.0 0.0 0.00 0.00 0.00 74 1008.7
20260509192904 83 94 0.0 0.0 0.00 0.00 0.00 73 1008.9
20260509192400 84 96 0.0 0.0 0.00 0.00 0.00 72 1008.9
20260509191855 84 118 0.9 1.7 0.00 0.00 0.00 72 1009.1
20260509191351 84 121 0.0 0.0 0.00 0.00 0.00 72 1009.2
20260509190848 84 116 0.0 0.0 0.00 0.00 0.00 70 1009.1
20260509190344 84 109 0.0 0.0 0.00 0.00 0.00 71 1009.1
20260509185842 83 74 0.0 0.0 0.00 0.00 0.00 73 1009.1
20260509185338 82 100 0.0 0.0 0.00 0.00 0.00 76 1009.0
20260509184836 82 106 0.0 0.0 0.00 0.00 0.00 76 1009.4
20260509184333 81 99 0.0 0.0 0.00 0.00 0.00 80 1009.3
20260509183829 82 107 0.0 0.0 0.00 0.00 0.00 76 1009.6
20260509183324 82 98 0.0 0.0 0.00 0.00 0.00 73 1009.3
20260509182821 82 340 0.9 0.9 0.00 0.00 0.00 75 1009.4
20260509182318 82 54 0.9 0.9 0.00 0.00 0.00 76 1009.6
20260509181815 82 108 0.0 0.0 0.00 0.00 0.00 76 1009.7
20260509181312 81 107 0.0 0.0 0.00 0.00 0.00 78 1009.6
20260509180810 81 127 0.9 0.9 0.00 0.00 0.00 77 1009.7
20260509180306 81 130 0.9 0.9 0.00 0.00 0.00 79 1009.6
20260509175802 81 118 0.0 0.0 0.00 0.00 0.00 76 1009.7
20260509175259 81 154 0.9 0.9 0.00 0.00 0.00 78 1009.9
20260509174755 80 112 0.0 0.0 0.00 0.00 0.00 81 1010.0
20260509174250 80 109 0.0 0.0 0.00 0.00 0.00 84 1009.9
20260509173747 80 134 0.0 0.9 0.00 0.00 0.00 83 1009.8
20260509173242 79 65 0.0 0.9 0.00 0.00 0.00 85 1009.8
20260509172738 79 110 0.0 0.9 0.00 0.00 0.00 85 1010.1
20260509172235 78 98 0.0 0.0 0.00 0.00 0.00 86 1010.1
20260509171731 78 103 0.0 0.0 0.00 0.00 0.00 88 1010.2
20260509171227 78 117 0.0 0.0 0.00 0.00 0.00 87 1010.1
20260509170724 78 117 0.0 0.0 0.00 0.00 0.00 88 1010.3
20260509170220 78 114 0.0 0.0 0.00 0.00 0.00 87 1010.2
20260509165718 78 77 0.0 0.0 0.00 0.00 0.00 89 1010.2
20260509165214 77 117 0.0 0.0 0.00 0.00 0.00 88 1010.3
20260509164710 77 116 0.0 0.0 0.00 0.00 0.00 88 1010.2
20260509164206 77 118 0.0 0.0 0.00 0.00 0.00 88 1010.2
20260509163703 77 98 0.0 0.0 0.00 0.00 0.00 88 1010.3
20260509163200 78 97 0.9 0.9 0.00 0.00 0.00 89 1010.3
20260509162657 78 131 0.9 0.9 0.00 0.00 0.00 89 1010.3
20260509162153 77 117 0.0 0.0 0.00 0.00 0.00 91 1010.1
20260509161649 76 68 0.0 0.9 0.00 0.00 0.00 93 1010.3
20260509161144 76 115 0.0 0.0 0.00 0.00 0.00 92 1010.2
20260509160640 76 120 0.0 0.0 0.00 0.00 0.00 92 1010.1
20260509160135 76 146 0.0 0.9 0.00 0.00 0.00 95 1010.0
20260509155632 74 107 0.0 0.0 0.00 0.00 0.00 96 1009.9
20260509155129 74 73 0.0 0.0 0.00 0.00 0.00 99 1010.1
20260509154624 73 88 0.0 0.0 0.00 0.00 0.00 99 1010.2
20260509154121 73 104 0.0 0.0 0.00 0.00 0.00 99 1010.2
20260509153619 73 112 0.0 0.0 0.00 0.00 0.00 99 1010.3
20260509153115 73 114 0.0 0.0 0.00 0.00 0.00 99 1010.0
20260509152611 72 114 0.0 0.0 0.00 0.00 0.00 99 1010.3
20260509152109 72 118 0.0 0.0 0.00 0.00 0.00 99 1010.3
20260509151605 72 107 0.0 0.0 0.00 0.00 0.00 99 1010.2
20260509151103 72 106 0.0 0.0 0.00 0.00 0.00 99 1010.4
20260509150600 72 102 0.0 0.0 0.00 0.00 0.00 99 1010.3
20260509150058 72 102 0.0 0.0 0.00 0.00 0.00 99 1010.2
20260509145554 72 102 0.0 0.0 0.00 0.00 0.00 99 1010.2
20260509145049 71 104 0.0 0.0 0.00 0.00 0.00 99 1010.2
20260509144546 71 109 0.0 0.0 0.00 0.00 0.00 99 1010.3
20260509144043 71 109 0.0 0.0 0.00 0.00 0.00 99 1010.2
20260509143540 71 109 0.0 0.0 0.00 0.00 0.00 99 1010.4
20260509143038 71 106 0.0 0.0 0.00 0.00 0.00 99 1010.4
20260509142533 71 105 0.0 0.0 0.00 0.00 0.00 99 1010.4
20260509142029 71 105 0.0 0.0 0.00 0.00 0.00 99 1010.7
20260509141526 71 108 0.0 0.0 0.00 0.00 0.00 99 1010.4
20260509141023 71 108 0.0 0.0 0.00 0.00 0.00 99 1010.3
20260509140519 71 108 0.0 0.0 0.00 0.00 0.00 99 1010.5
20260509140018 71 108 0.0 0.0 0.00 0.00 0.00 99 1010.3
20260509135514 71 112 0.0 0.0 0.00 0.00 0.00 99 1010.2
20260509135012 71 111 0.0 0.0 0.00 0.00 0.00 99 1010.3
20260509134509 71 111 0.0 0.0 0.00 0.00 0.00 99 1010.2
20260509134007 71 111 0.0 0.0 0.00 0.00 0.00 99 1010.3
20260509133503 71 111 0.0 0.0 0.00 0.00 0.00 99 1010.3
20260509133001 71 117 0.0 0.0 0.00 0.00 0.00 99 1010.2
20260509132459 71 113 0.0 0.0 0.00 0.00 0.00 99 1010.1
20260509131956 71 101 0.0 0.0 0.00 0.00 0.00 99 1010.0
20260509131453 71 104 0.0 0.0 0.00 0.00 0.00 99 1010.1
20260509130949 71 100 0.0 0.0 0.00 0.00 0.00 99 1010.2
20260509130445 70 100 0.0 0.0 0.00 0.00 0.00 99 1010.2
20260509125942 70 99 0.0 0.0 0.00 0.00 0.00 99 1010.3
20260509125439 70 99 0.0 0.0 0.00 0.00 0.00 99 1010.1
20260509124935 70 109 0.0 0.0 0.00 0.00 0.00 99 1010.2
20260509124432 70 108 0.0 0.0 0.00 0.00 0.00 99 1010.0
20260509123929 70 114 0.0 0.0 0.00 0.00 0.00 99 1010.2
20260509123426 70 116 0.0 0.0 0.00 0.00 0.00 99 1010.0
20260509122922 70 118 0.0 0.0 0.00 0.00 0.00 99 1009.8
20260509122419 70 115 0.0 0.0 0.00 0.00 0.00 99 1009.7
20260509121916 69 108 0.0 0.0 0.00 0.00 0.00 99 1009.6
20260509121413 69 111 0.0 0.0 0.00 0.00 0.00 99 1009.8
20260509120911 70 113 0.0 0.0 0.00 0.00 0.00 99 1009.8
20260509120408 69 118 0.0 0.0 0.00 0.00 0.00 99 1009.8
20260509115906 70 117 0.0 0.0 0.00 0.00 0.00 99 1009.7
20260509115403 70 101 0.0 0.0 0.00 0.00 0.00 99 1009.6
20260509114901 69 96 0.0 0.0 0.00 0.00 0.00 99 1009.2
20260509114359 69 101 0.0 0.0 0.00 0.00 0.00 99 1009.4
20260509113858 69 105 0.0 0.0 0.00 0.00 0.00 99 1009.5
20260509113356 69 107 0.0 0.0 0.00 0.00 0.00 99 1009.4
20260509112852 69 66 0.0 0.0 0.00 0.00 0.00 99 1009.1
20260509112349 69 108 0.0 0.0 0.00 0.00 0.00 99 1009.1
20260509111846 69 115 0.0 0.0 0.00 0.00 0.00 99 1008.8
20260509111343 69 111 0.0 0.0 0.00 0.00 0.00 99 1008.8
20260509110841 69 140 0.9 0.9 0.00 0.00 0.00 99 1008.8
20260509110337 69 105 0.9 0.9 0.00 0.00 0.00 99 1008.9
20260509105835 69 123 0.0 0.0 0.00 0.00 0.00 99 1008.8
20260509105333 69 135 0.9 0.9 0.00 0.00 0.00 99 1009.1
20260509104829 69 113 0.0 0.0 0.00 0.00 0.00 99 1009.2
20260509104326 69 112 0.0 0.0 0.00 0.00 0.00 99 1009.1
20260509103824 69 114 0.0 0.0 0.00 0.00 0.00 99 1009.0
20260509103321 69 115 0.0 0.0 0.00 0.00 0.00 99 1009.0
20260509102820 69 115 0.0 0.0 0.00 0.00 0.00 99 1009.3
20260509102317 69 114 0.0 0.0 0.00 0.00 0.00 99 1009.0
20260509101812 69 112 0.0 0.0 0.00 0.00 0.00 99 1009.1
20260509101309 69 114 0.0 0.0 0.00 0.00 0.00 99 1009.2
20260509100807 69 112 0.0 0.0 0.00 0.00 0.00 99 1009.2
20260509100303 69 112 0.0 0.0 0.00 0.00 0.00 99 1009.3
20260509095800 69 112 0.0 0.0 0.00 0.00 0.00 99 1009.5
20260509095257 69 112 0.0 0.0 0.00 0.00 0.00 99 1009.3
20260509094754 69 112 0.0 0.0 0.00 0.00 0.00 99 1009.6
20260509094251 69 112 0.0 0.0 0.00 0.00 0.00 99 1009.4
20260509093749 69 110 0.0 0.0 0.00 0.00 0.00 99 1009.4
20260509093246 69 109 0.0 0.0 0.00 0.00 0.00 99 1009.3
20260509092744 69 112 0.0 0.0 0.00 0.00 0.00 99 1009.4
20260509092242 69 114 0.0 0.0 0.00 0.00 0.00 99 1009.3
20260509091740 69 108 0.0 0.0 0.00 0.00 0.00 99 1009.4
20260509091236 69 103 0.0 0.0 0.00 0.00 0.00 99 1009.3
20260509090733 69 114 0.0 0.0 0.00 0.00 0.00 99 1009.3
20260509090231 69 113 0.0 0.0 0.00 0.00 0.00 99 1009.2
20260509085728 69 116 0.0 0.0 0.00 0.00 0.00 99 1009.0
20260509085225 69 92 0.0 0.0 0.00 0.00 0.00 99 1009.3
20260509084722 69 116 0.0 0.0 0.00 0.00 0.00 99 1009.2
20260509084218 69 124 0.0 0.0 0.00 0.00 0.00 99 1009.4
20260509083717 69 107 0.0 0.0 0.00 0.00 0.00 99 1009.6
20260509083213 69 114 0.0 0.0 0.00 0.00 0.00 99 1009.6
20260509082710 69 114 0.0 0.0 0.00 0.00 0.00 99 1009.7
20260509082206 69 115 0.0 0.0 0.00 0.00 0.00 99 1010.0
20260509081703 69 112 0.0 0.0 0.00 0.00 0.00 99 1010.2
20260509081200 69 112 0.0 0.0 0.00 0.00 0.00 99 1009.9
20260509080659 69 112 0.0 0.0 0.00 0.00 0.00 99 1010.4
20260509080156 69 103 0.0 0.0 0.00 0.00 0.00 99 1010.2
20260509075654 69 100 0.0 0.0 0.00 0.00 0.00 99 1010.4
20260509075151 69 98 0.0 0.0 0.00 0.00 0.00 99 1010.3
20260509074648 69 109 0.0 0.0 0.00 0.00 0.00 99 1010.4
20260509074144 69 98 0.0 0.0 0.00 0.00 0.00 99 1010.4
20260509073642 69 95 0.0 0.0 0.00 0.00 0.00 99 1010.0
20260509073137 69 104 0.0 0.0 0.00 0.00 0.00 99 1010.2
20260509072635 69 68 0.0 0.9 0.00 0.00 0.00 99 1010.2
20260509072131 69 104 0.0 0.0 0.00 0.00 0.00 99 1009.6
20260509071628 69 93 0.0 0.0 0.00 0.00 0.00 99 1009.5
20260509071125 69 81 0.0 0.9 0.00 0.00 0.00 99 1009.7
20260509070623 69 102 0.0 0.0 0.00 0.00 0.00 99 1009.5
20260509070119 69 113 0.0 0.0 0.00 0.00 0.00 99 1009.7
20260509065614 69 104 0.0 0.0 0.00 0.00 0.00 99 1009.8
20260509065110 69 101 0.0 0.0 0.00 0.00 0.00 99 1009.8
20260509064608 69 111 0.0 0.0 0.00 0.00 0.00 99 1009.6
20260509064106 69 128 0.0 0.9 0.00 0.00 0.00 99 1009.5
20260509063602 69 148 0.9 1.7 0.00 0.00 0.00 98 1009.6
20260509063059 69 122 0.0 0.0 0.00 0.00 0.00 98 1010.4
20260509062556 69 108 0.0 0.0 0.00 0.00 0.00 97 1010.4
20260509062054 70 108 0.0 0.0 0.00 0.00 0.00 97 1010.8
20260509061550 70 99 0.0 0.0 0.00 0.00 0.00 96 1010.7
20260509061047 70 99 0.0 0.0 0.00 0.00 0.00 96 1010.6
20260509060545 70 99 0.0 0.0 0.00 0.00 0.00 95 1010.8
20260509060040 70 106 0.0 0.0 0.00 0.00 0.00 94 1010.8
20260509055536 70 106 0.0 0.0 0.00 0.00 0.00 94 1010.9
20260509055032 70 99 0.0 0.0 0.00 0.00 0.00 94 1011.0
20260509054529 70 98 0.0 0.0 0.00 0.00 0.00 94 1011.1
20260509054027 70 98 0.0 0.0 0.00 0.00 0.00 94 1011.1
20260509053526 70 98 0.0 0.0 0.00 0.00 0.00 94 1010.9
20260509053022 70 98 0.0 0.0 0.00 0.00 0.00 94 1011.2
20260509052520 70 98 0.0 0.0 0.00 0.00 0.00 93 1010.9
20260509052018 70 98 0.0 0.0 0.00 0.00 0.00 93 1010.8
20260509051516 70 96 0.0 0.0 0.00 0.00 0.00 93 1010.8
20260509051012 70 94 0.0 0.0 0.00 0.00 0.00 93 1010.9
20260509050509 70 97 0.0 0.0 0.00 0.00 0.00 93 1010.8
20260509050006 70 97 0.0 0.0 0.00 0.00 0.00 93 1010.7
20260509045503 70 97 0.0 0.0 0.00 0.00 0.00 93 1010.1
20260509045000 70 97 0.0 0.0 0.00 0.00 0.00 93 1010.1
20260509044457 70 97 0.0 0.0 0.00 0.00 0.00 93 1010.2
20260509043954 70 97 0.0 0.0 0.00 0.00 0.00 93 1010.2
20260509043450 70 97 0.0 0.0 0.00 0.00 0.00 93 1010.2
20260509042946 70 97 0.0 0.0 0.00 0.00 0.00 93 1010.1
20260509042443 70 96 0.0 0.0 0.00 0.00 0.00 93 1010.1
20260509041939 70 101 0.0 0.0 0.00 0.00 0.00 93 1010.0
20260509041436 70 101 0.0 0.0 0.00 0.00 0.00 93 1009.8
20260509040934 70 99 0.0 0.0 0.00 0.00 0.00 92 1009.8
20260509040432 70 99 0.0 0.0 0.00 0.00 0.00 92 1010.0
20260509035928 70 99 0.0 0.0 0.00 0.00 0.00 92 1010.0
20260509035425 70 99 0.0 0.0 0.00 0.00 0.00 92 1010.0
20260509034922 70 97 0.0 0.0 0.00 0.00 0.00 92 1010.0
20260509034420 70 116 0.0 0.0 0.00 0.00 0.00 92 1009.9
20260509033917 70 118 0.0 0.0 0.00 0.00 0.00 92 1009.8
20260509033414 70 96 0.0 0.0 0.00 0.00 0.00 92 1010.0
20260509032910 70 103 0.0 0.0 0.00 0.00 0.00 92 1009.9
20260509032408 70 103 0.0 0.0 0.00 0.00 0.00 92 1010.1
20260509031905 70 103 0.0 0.0 0.00 0.00 0.00 92 1009.7
20260509031402 70 103 0.0 0.0 0.00 0.00 0.00 92 1009.7
20260509030900 70 103 0.0 0.0 0.00 0.00 0.00 92 1009.8
20260509030358 70 98 0.0 0.0 0.00 0.00 0.00 91 1009.7
20260509025855 70 98 0.0 0.0 0.00 0.00 0.00 91 1009.8
20260509025349 70 96 0.0 0.0 0.00 0.00 0.00 91 1009.7
20260509024845 70 99 0.0 0.0 0.00 0.00 0.00 91 1009.6
20260509024342 70 99 0.0 0.0 0.00 0.00 0.00 91 1009.4
20260509023839 70 99 0.0 0.0 0.00 0.00 0.00 91 1009.4
20260509023336 70 99 0.0 0.0 0.00 0.00 0.00 91 1009.2
20260509022827 70 99 0.0 0.0 0.00 0.00 0.00 90 1009.1
20260509022325 70 99 0.0 0.0 0.00 0.00 0.00 90 1009.2
20260509021821 70 100 0.0 0.0 0.00 0.00 0.00 90 1009.0
20260509021318 70 96 0.0 0.0 0.00 0.00 0.00 90 1009.0
20260509020816 70 82 0.0 0.9 0.00 0.00 0.00 90 1008.9
20260509020314 70 98 0.0 0.0 0.00 0.00 0.00 90 1008.6
20260509015811 70 98 0.0 0.0 0.00 0.00 0.00 89 1008.8
20260509015309 70 87 0.0 0.0 0.00 0.00 0.00 89 1008.6
20260509014805 71 96 0.0 0.0 0.00 0.00 0.00 89 1008.3
20260509014303 71 93 0.0 0.0 0.00 0.00 0.00 88 1008.2
20260509013759 71 97 0.0 0.0 0.00 0.00 0.00 88 1008.0
20260509013255 71 94 0.0 0.0 0.00 0.00 0.00 88 1008.2
20260509012751 71 101 0.0 0.0 0.00 0.00 0.00 87 1008.1
20260509012248 71 101 0.0 0.0 0.00 0.00 0.00 87 1007.9
20260509011746 72 98 0.0 0.0 0.00 0.00 0.00 86 1008.0
20260509011243 72 101 0.0 0.0 0.00 0.00 0.00 86 1008.0
20260509010740 72 99 0.0 0.0 0.00 0.00 0.00 85 1007.8
20260509010237 72 99 0.0 0.0 0.00 0.00 0.00 84 1008.1
20260509005734 73 99 0.0 0.0 0.00 0.00 0.00 84 1008.1
20260509005231 73 89 0.0 0.0 0.00 0.00 0.00 83 1008.2
20260509004725 73 103 0.0 0.0 0.00 0.00 0.00 82 1008.2
20260509004224 73 107 0.0 0.0 0.00 0.00 0.00 81 1008.0
20260509003722 74 116 0.0 0.0 0.00 0.00 0.00 81 1008.1
20260509003219 74 120 0.0 0.0 0.00 0.00 0.00 81 1008.2
20260509002716 74 117 0.0 0.0 0.00 0.00 0.00 80 1008.0
20260509002214 74 129 0.9 0.9 0.00 0.00 0.00 80 1007.9
20260509001711 74 128 0.0 0.0 0.00 0.00 0.00 80 1007.9
20260509001207 74 122 0.0 0.9 0.00 0.00 0.00 80 1008.0
20260509000705 74 100 0.0 0.9 0.00 0.00 0.00 80 1008.1
20260509000204 74 124 0.0 0.0 0.00 0.00 0.00 80 1007.9
20260508235659 74 136 0.9 0.9 0.00 0.00 0.00 80 1007.7
20260508235155 75 121 0.0 0.0 0.00 0.00 0.00 79 1008.2
20260508234653 75 115 0.0 0.0 0.00 0.00 0.00 79 1008.1
20260508234149 75 114 0.0 0.0 0.00 0.00 0.00 78 1008.1
20260508233649 75 117 0.0 0.9 0.00 0.00 0.00 79 1008.4
20260508233146 75 115 0.0 0.0 0.00 0.00 0.00 78 1008.6
20260508232643 75 111 0.0 0.0 0.00 0.00 0.00 78 1008.6
20260508232139 75 112 0.0 0.0 0.00 0.00 0.00 77 1008.7
20260508231637 75 110 0.0 0.0 0.00 0.00 0.00 76 1008.8
20260508231134 76 110 0.0 0.0 0.00 0.00 0.00 77 1009.0
20260508230630 76 94 0.0 0.0 0.00 0.00 0.00 77 1009.1
20260508230127 76 104 0.0 0.0 0.00 0.00 0.00 76 1009.2
20260508225625 76 112 0.0 0.0 0.00 0.00 0.00 76 1009.1
20260508225121 76 114 0.0 0.0 0.00 0.00 0.00 75 1009.1
20260508224619 76 127 0.0 0.0 0.00 0.00 0.00 74 1009.2
20260508224116 77 112 0.0 0.0 0.00 0.00 0.00 73 1009.3
20260508223614 77 118 0.0 0.0 0.00 0.00 0.00 71 1009.1
20260508223111 76 114 0.0 0.0 0.00 0.00 0.00 73 1008.9
20260508222608 76 101 0.0 0.0 0.00 0.00 0.00 75 1008.9
20260508222105 76 112 0.0 0.0 0.00 0.00 0.00 73 1009.2
20260508221601 75 122 0.0 0.0 0.00 0.00 0.00 76 1009.1
20260508221057 76 105 0.0 0.9 0.00 0.00 0.00 76 1009.6
20260508220554 76 109 0.0 0.0 0.00 0.00 0.00 75 1009.7
20260508220050 76 110 0.0 0.0 0.00 0.00 0.00 74 1009.7
20260508215547 76 105 0.0 0.0 0.00 0.00 0.00 74 1009.5
20260508215044 76 105 0.0 0.0 0.00 0.00 0.00 73 1009.4
20260508214541 76 105 0.0 0.0 0.00 0.00 0.00 75 1009.5
20260508214037 76 105 0.0 0.0 0.00 0.00 0.00 73 1009.2
20260508213535 77 109 0.0 0.0 0.00 0.00 0.00 72 1009.4
20260508213030 77 106 0.0 0.0 0.00 0.00 0.00 70 1009.4
20260508212528 77 117 0.0 0.0 0.00 0.00 0.00 68 1009.3
20260508212024 78 103 0.0 0.0 0.00 0.00 0.00 70 1009.5
20260508211519 78 106 0.0 0.0 0.00 0.00 0.00 67 1009.3
20260508211016 79 106 0.9 0.9 0.00 0.00 0.00 66 1009.3
20260508210512 80 117 0.0 0.9 0.00 0.00 0.00 63 1009.3
20260508210010 80 101 0.0 0.0 0.00 0.00 0.00 62 1009.4
20260508205507 79 112 0.0 0.0 0.00 0.00 0.00 62 1009.1
20260508205003 79 79 0.9 0.9 0.00 0.00 0.00 63 1008.9
20260508204501 79 154 0.9 0.9 0.00 0.00 0.00 61 1008.9
20260508203956 79 97 0.0 0.9 0.00 0.00 0.00 63 1009.0
20260508203452 79 94 0.0 0.0 0.00 0.00 0.00 63 1009.2
20260508202947 79 141 0.9 0.9 0.00 0.00 0.00 63 1009.2
20260508202445 79 113 0.0 0.0 0.00 0.00 0.00 64 1009.4
20260508201942 78 101 0.0 0.9 0.00 0.00 0.00 64 1009.5
20260508201439 79 119 0.9 0.9 0.00 0.00 0.00 63 1009.9
20260508200936 78 105 0.0 0.0 0.00 0.00 0.00 65 1010.1